Location: Newark
(58.8333°N, 23.5833°E)
Time: 15:32:51
(UTC+00:00)

A-11 Canister half - Pass Details

Date: 24 November 2019
Orbit: 1515 x 1685 km, 47.2° (Epoch: 13 December)

Event Time Altitude Azimuth Distance (km) Brightness Sun altitude
Rises 22:24:10 0° 280° (W) 4,945 11.7 -51.7°
Enters shadow 22:24:49 - 278° (W) 4,810 11.6 -51.7°
Reaches altitude 10° 22:30:33 10° 251° (WSW) 3,942 - -51.7°
Maximum altitude 22:33:19 11° 235° (SW) 3,816 - -51.6°
Drops below altitude 10° 22:36:04 10° 219° (SW) 3,918 - -51.6°
Sets 22:42:24 0° 189° (S) 4,867 - -51.4°
